Time,TemperatureF,DewpointF,PressureIn,WindDirection,WindDirectionDegrees,WindSpeedMPH,WindSpeedGustMPH,Humidity,HourlyPrecipIn,Conditions,Clouds,dailyrainin,SoftwareType,DateUTC
2013-08-14 00:01:00,54.6,42.7,30.06,NNW,338,0.0,0.0,64,0.00,,---,0.00,VWS V14.01,2013-08-14 04:01:00,
2013-08-14 00:03:00,54.5,42.6,30.06,NNW,338,0.0,0.0,64,0.00,,---,0.00,VWS V14.01,2013-08-14 04:03:00,
2013-08-14 00:05:00,54.5,42.6,30.06,NW,315,0.0,0.0,64,0.00,,---,0.00,VWS V14.01,2013-08-14 04:05:00,
2013-08-14 00:08:00,54.5,42.6,30.06,NW,315,0.0,0.0,64,0.00,,---,0.00,VWS V14.01,2013-08-14 04:08:00,
2013-08-14 00:11:00,54.3,42.8,30.06,WNW,292,0.0,0.0,65,0.00,,---,0.00,VWS V14.01,2013-08-14 04:11:00,
2013-08-14 00:16:00,54.1,42.6,30.07,NW,315,0.0,0.0,65,0.00,,---,0.00,VWS V14.01,2013-08-14 04:16:00,
2013-08-14 00:21:00,54.1,42.6,30.07,NNW,338,0.0,0.0,65,0.00,,---,0.00,VWS V14.01,2013-08-14 04:21:00,
2013-08-14 00:26:00,53.9,42.4,30.07,NNW,338,0.0,0.0,65,0.00,,---,0.00,VWS V14.01,2013-08-14 04:26:00,
2013-08-14 00:31:00,53.7,42.2,30.07,NW,315,0.0,0.0,65,0.00,,---,0.00,VWS V14.01,2013-08-14 04:31:00,
2013-08-14 00:36:00,53.7,42.2,30.07,NW,315,0.0,0.0,65,0.00,,---,0.00,VWS V14.01,2013-08-14 04:36:00,
2013-08-14 00:41:00,53.4,42.3,30.07,NW,315,0.0,0.0,66,0.00,,---,0.00,VWS V14.01,2013-08-14 04:41:00,
2013-08-14 00:46:00,53.4,42.3,30.07,NW,315,0.0,0.0,66,0.00,,---,0.00,VWS V14.01,2013-08-14 04:46:00,
2013-08-14 00:51:00,53.2,42.2,30.07,NW,315,0.0,0.0,66,0.00,,---,0.00,VWS V14.01,2013-08-14 04:51:00,
2013-08-14 00:56:00,53.2,42.5,30.07,WNW,292,0.0,0.0,67,0.00,,---,0.00,VWS V14.01,2013-08-14 04:56:00,
2013-08-14 01:01:00,53.0,42.3,30.07,NW,315,0.0,0.0,67,0.00,,---,0.00,VWS V14.01,2013-08-14 05:01:00,
2013-08-14 01:06:00,52.8,42.5,30.07,NNW,338,0.0,0.0,68,0.00,,---,0.00,VWS V14.01,2013-08-14 05:06:00,
2013-08-14 01:11:00,52.8,42.5,30.07,NNW,338,0.0,0.0,68,0.00,,---,0.00,VWS V14.01,2013-08-14 05:11:00,
2013-08-14 01:16:00,52.7,42.5,30.07,NNW,338,0.0,0.0,68,0.00,,---,0.00,VWS V14.01,2013-08-14 05:16:00,
2013-08-14 01:21:00,52.7,42.8,30.07,NW,315,0.0,0.0,69,0.00,,---,0.00,VWS V14.01,2013-08-14 05:21:00,
2013-08-14 01:26:00,52.5,43.0,30.07,WSW,248,0.0,0.0,70,0.00,,---,0.00,VWS V14.01,2013-08-14 05:26:00,
2013-08-14 01:31:00,52.5,43.0,30.08,NNW,338,0.0,0.0,70,0.00,,---,0.00,VWS V14.01,2013-08-14 05:31:00,
2013-08-14 01:36:00,52.5,43.0,30.07,NW,315,0.0,0.0,70,0.00,,---,0.00,VWS V14.01,2013-08-14 05:36:00,
2013-08-14 01:41:00,52.3,43.2,30.08,NW,315,0.0,0.0,71,0.00,,---,0.00,VWS V14.01,2013-08-14 05:41:00,
2013-08-14 01:46:00,52.3,43.2,30.08,NNW,338,0.0,0.0,71,0.00,,---,0.00,VWS V14.01,2013-08-14 05:46:00,
2013-08-14 01:51:00,52.3,43.2,30.08,WNW,292,0.0,0.0,71,0.00,,---,0.00,VWS V14.01,2013-08-14 05:51:00,
2013-08-14 01:56:00,52.3,43.5,30.08,NW,315,0.0,0.0,72,0.00,,---,0.00,VWS V14.01,2013-08-14 05:56:00,
2013-08-14 02:01:00,52.1,43.4,30.08,NNW,338,0.0,0.0,72,0.00,,---,0.00,VWS V14.01,2013-08-14 06:01:00,
2013-08-14 02:06:00,52.1,43.4,30.08,WSW,248,0.0,0.0,72,0.00,,---,0.00,VWS V14.01,2013-08-14 06:06:00,
2013-08-14 02:11:00,52.1,43.4,30.08,West,270,0.0,0.0,72,0.00,,---,0.00,VWS V14.01,2013-08-14 06:11:00,
2013-08-14 02:16:00,52.1,43.4,30.08,NNW,338,0.0,0.0,72,0.00,,---,0.00,VWS V14.01,2013-08-14 06:16:00,
2013-08-14 02:21:00,51.9,43.5,30.08,WNW,292,0.0,0.0,73,0.00,,---,0.00,VWS V14.01,2013-08-14 06:21:00,
2013-08-14 02:26:00,51.9,43.5,30.08,NNW,338,0.0,0.0,73,0.00,,---,0.00,VWS V14.01,2013-08-14 06:26:00,
2013-08-14 02:31:00,51.9,43.5,30.08,WNW,292,0.0,0.0,73,0.00,,---,0.00,VWS V14.01,2013-08-14 06:31:00,
2013-08-14 02:36:00,51.8,43.4,30.08,NNW,338,0.0,0.0,73,0.00,,---,0.00,VWS V14.01,2013-08-14 06:36:00,
2013-08-14 02:41:00,51.6,43.6,30.08,NNW,338,0.0,0.0,74,0.00,,---,0.00,VWS V14.01,2013-08-14 06:41:00,
2013-08-14 02:46:00,51.6,43.6,30.08,NW,315,0.0,0.0,74,0.00,,---,0.00,VWS V14.01,2013-08-14 06:46:00,
2013-08-14 02:51:00,51.6,43.6,30.08,NNW,338,0.0,0.0,74,0.00,,---,0.00,VWS V14.01,2013-08-14 06:51:00,
2013-08-14 02:56:00,51.8,43.8,30.08,NNW,338,0.0,0.0,74,0.00,,---,0.00,VWS V14.01,2013-08-14 06:56:00,
2013-08-14 03:01:00,51.8,43.8,30.08,NW,315,0.0,0.0,74,0.00,,---,0.00,VWS V14.01,2013-08-14 07:01:00,
2013-08-14 03:06:00,51.8,43.8,30.08,NNW,338,0.0,0.0,74,0.00,,---,0.00,VWS V14.01,2013-08-14 07:06:00,
2013-08-14 03:11:00,51.6,44.0,30.08,NW,315,0.0,0.0,75,0.00,,---,0.00,VWS V14.01,2013-08-14 07:11:00,
2013-08-14 03:16:00,51.6,44.0,30.07,NNW,338,0.0,0.0,75,0.00,,---,0.00,VWS V14.01,2013-08-14 07:16:00,
2013-08-14 03:21:00,51.6,44.0,30.08,West,270,0.0,0.0,75,0.00,,---,0.00,VWS V14.01,2013-08-14 07:21:00,
2013-08-14 03:26:00,51.6,44.0,30.08,SE,135,0.0,0.0,75,0.00,,---,0.00,VWS V14.01,2013-08-14 07:26:00,
2013-08-14 03:31:00,51.4,43.8,30.08,WSW,248,0.0,0.0,75,0.00,,---,0.00,VWS V14.01,2013-08-14 07:31:00,
2013-08-14 03:36:00,51.4,43.8,30.08,NW,315,0.0,0.0,75,0.00,,---,0.00,VWS V14.01,2013-08-14 07:36:00,
2013-08-14 03:41:00,51.4,43.8,30.08,West,270,0.0,0.0,75,0.00,,---,0.00,VWS V14.01,2013-08-14 07:41:00,
2013-08-14 03:46:00,51.2,43.9,30.08,NW,315,0.0,0.0,76,0.00,,---,0.00,VWS V14.01,2013-08-14 07:46:00,
2013-08-14 03:51:00,51.0,43.7,30.08,NW,315,0.0,0.0,76,0.00,,---,0.00,VWS V14.01,2013-08-14 07:51:00,
2013-08-14 03:56:00,51.0,43.7,30.08,NW,315,0.0,0.0,76,0.00,,---,0.00,VWS V14.01,2013-08-14 07:56:00,
2013-08-14 04:01:00,51.0,43.7,30.08,NNW,338,0.0,0.0,76,0.00,,---,0.00,VWS V14.01,2013-08-14 08:01:00,
2013-08-14 04:06:00,50.7,43.8,30.08,NW,315,0.0,0.0,77,0.00,,---,0.00,VWS V14.01,2013-08-14 08:06:00,
2013-08-14 04:11:00,50.7,43.8,30.08,WSW,248,0.0,0.0,77,0.00,,---,0.00,VWS V14.01,2013-08-14 08:11:00,
2013-08-14 04:16:00,50.7,43.8,30.08,NW,315,0.0,0.0,77,0.00,,---,0.00,VWS V14.01,2013-08-14 08:16:00,
2013-08-14 04:21:00,50.5,43.6,30.08,NW,315,0.0,0.0,77,0.00,,---,0.00,VWS V14.01,2013-08-14 08:21:00,
2013-08-14 04:26:00,50.5,43.9,30.08,NNW,338,0.0,0.0,78,0.00,,---,0.00,VWS V14.01,2013-08-14 08:26:00,
2013-08-14 04:31:00,50.3,43.7,30.08,NW,315,0.0,0.0,78,0.00,,---,0.00,VWS V14.01,2013-08-14 08:31:00,
2013-08-14 04:36:00,50.3,43.7,30.08,WNW,292,0.0,0.0,78,0.00,,---,0.00,VWS V14.01,2013-08-14 08:36:00,
2013-08-14 04:41:00,50.3,43.7,30.08,West,270,0.0,0.0,78,0.00,,---,0.00,VWS V14.01,2013-08-14 08:41:00,
2013-08-14 04:46:00,50.1,43.5,30.08,WSW,248,0.0,0.0,78,0.00,,---,0.00,VWS V14.01,2013-08-14 08:46:00,
2013-08-14 04:51:00,50.1,43.5,30.08,West,270,0.0,0.0,78,0.00,,---,0.00,VWS V14.01,2013-08-14 08:51:00,
2013-08-14 04:56:00,50.1,43.5,30.08,West,270,0.0,0.0,78,0.00,,---,0.00,VWS V14.01,2013-08-14 08:56:00,
2013-08-14 05:01:00,50.1,43.5,30.08,West,270,0.0,0.0,78,0.00,,---,0.00,VWS V14.01,2013-08-14 09:01:00,
2013-08-14 05:06:00,49.8,43.2,30.08,NW,315,0.0,0.0,78,0.00,,---,0.00,VWS V14.01,2013-08-14 09:06:00,
2013-08-14 05:11:00,49.8,43.2,30.08,NW,315,0.0,0.0,78,0.00,,---,0.00,VWS V14.01,2013-08-14 09:11:00,
2013-08-14 05:16:00,49.6,43.0,30.09,WNW,292,0.0,0.0,78,0.00,,---,0.00,VWS V14.01,2013-08-14 09:16:00,
2013-08-14 05:21:00,49.6,43.0,30.09,West,270,0.0,0.0,78,0.00,,---,0.00,VWS V14.01,2013-08-14 09:21:00,
2013-08-14 05:26:00,49.6,43.4,30.09,NNW,338,0.0,0.0,79,0.00,,---,0.00,VWS V14.01,2013-08-14 09:26:00,
2013-08-14 05:31:00,49.6,43.4,30.09,WNW,292,0.0,0.0,79,0.00,,---,0.00,VWS V14.01,2013-08-14 09:31:00,
2013-08-14 05:36:00,49.2,43.0,30.09,WNW,292,0.0,0.0,79,0.00,,---,0.00,VWS V14.01,2013-08-14 09:36:00,
2013-08-14 05:41:00,49.1,42.9,30.09,West,270,0.0,0.0,79,0.00,,---,0.00,VWS V14.01,2013-08-14 09:41:00,
2013-08-14 05:46:00,49.1,43.2,30.09,West,270,0.0,0.0,80,0.00,,---,0.00,VWS V14.01,2013-08-14 09:46:00,
2013-08-14 05:51:00,48.9,42.7,30.10,NW,315,0.0,0.0,79,0.00,,---,0.00,VWS V14.01,2013-08-14 09:51:00,
2013-08-14 05:56:00,48.9,43.0,30.10,NW,315,0.0,0.0,80,0.00,,---,0.00,VWS V14.01,2013-08-14 09:56:00,
2013-08-14 06:01:00,48.9,43.0,30.10,NW,315,0.0,0.0,80,0.00,,---,0.00,VWS V14.01,2013-08-14 10:01:00,
2013-08-14 06:06:00,48.9,43.0,30.10,NW,315,0.0,0.0,80,0.00,,---,0.00,VWS V14.01,2013-08-14 10:06:00,
2013-08-14 06:11:00,48.7,42.8,30.10,NW,315,0.0,0.0,80,0.00,,---,0.00,VWS V14.01,2013-08-14 10:11:00,
2013-08-14 06:16:00,48.7,42.8,30.11,NW,315,0.0,0.0,80,0.00,,---,0.00,VWS V14.01,2013-08-14 10:16:00,
2013-08-14 06:21:00,48.7,43.1,30.10,NW,315,0.0,0.0,81,0.00,,---,0.00,VWS V14.01,2013-08-14 10:21:00,
2013-08-14 06:26:00,48.7,43.1,30.10,NW,315,0.0,0.0,81,0.00,,---,0.00,VWS V14.01,2013-08-14 10:26:00,
2013-08-14 06:31:00,48.7,43.1,30.10,WNW,292,0.0,0.0,81,0.04,,---,0.04,VWS V14.01,2013-08-14 10:31:00,
2013-08-14 06:36:00,48.5,43.0,30.11,NW,315,0.0,0.0,81,0.06,,---,0.06,VWS V14.01,2013-08-14 10:36:00,
2013-08-14 06:41:00,48.3,42.8,30.11,NW,315,0.0,0.0,81,0.06,,---,0.06,VWS V14.01,2013-08-14 10:41:00,
2013-08-14 06:46:00,48.3,42.8,30.11,South,180,0.0,0.0,81,0.06,,---,0.06,VWS V14.01,2013-08-14 10:46:00,
2013-08-14 06:51:00,48.2,42.7,30.12,South,180,0.0,0.0,81,0.06,,---,0.06,VWS V14.01,2013-08-14 10:51:00,
2013-08-14 06:56:00,48.0,42.5,30.12,NW,315,0.0,0.0,81,0.06,,---,0.06,VWS V14.01,2013-08-14 10:56:00,
2013-08-14 07:01:00,48.0,42.8,30.12,NW,315,0.0,0.0,82,0.06,,---,0.06,VWS V14.01,2013-08-14 11:01:00,
2013-08-14 07:06:00,48.0,42.8,30.12,West,270,0.0,0.0,82,0.06,,---,0.06,VWS V14.01,2013-08-14 11:06:00,
2013-08-14 07:11:00,48.0,42.8,30.12,West,270,0.0,0.0,82,0.06,,---,0.06,VWS V14.01,2013-08-14 11:11:00,
2013-08-14 07:16:00,48.0,42.8,30.13,SSW,202,0.0,0.0,82,0.06,,---,0.06,VWS V14.01,2013-08-14 11:16:00,
2013-08-14 07:21:00,48.0,42.8,30.12,SSW,202,0.0,0.0,82,0.06,,---,0.06,VWS V14.01,2013-08-14 11:21:00,
2013-08-14 07:26:00,48.0,42.8,30.13,SSW,202,0.0,0.0,82,0.06,,---,0.06,VWS V14.01,2013-08-14 11:26:00,
2013-08-14 07:31:00,48.2,43.3,30.13,WSW,248,0.0,0.0,83,0.02,,---,0.06,VWS V14.01,2013-08-14 11:31:00,
2013-08-14 07:36:00,48.3,43.4,30.13,NW,315,0.0,0.0,83,0.00,,---,0.06,VWS V14.01,2013-08-14 11:36:00,
2013-08-14 07:41:00,48.5,43.6,30.13,WSW,248,0.0,0.0,83,0.00,,---,0.06,VWS V14.01,2013-08-14 11:41:00,
2013-08-14 07:46:00,48.7,43.8,30.13,WSW,248,0.0,0.0,83,0.00,,---,0.06,VWS V14.01,2013-08-14 11:46:00,
2013-08-14 07:51:00,48.9,44.0,30.13,NW,315,0.0,0.0,83,0.00,,---,0.06,VWS V14.01,2013-08-14 11:51:00,
2013-08-14 07:56:00,49.2,44.3,30.13,NW,315,0.0,0.0,83,0.00,,---,0.06,VWS V14.01,2013-08-14 11:56:00,
2013-08-14 08:01:00,49.4,44.5,30.14,NW,315,0.0,0.0,83,0.00,,---,0.06,VWS V14.01,2013-08-14 12:01:00,
2013-08-14 08:07:00,49.8,44.8,30.14,NW,315,0.0,0.0,83,0.00,,---,0.06,VWS V14.01,2013-08-14 12:07:00,
2013-08-14 08:12:00,50.1,45.5,30.13,NNW,338,0.0,0.0,84,0.00,,---,0.06,VWS V14.01,2013-08-14 12:12:00,
2013-08-14 08:17:00,50.3,45.7,30.13,NW,315,0.0,0.0,84,0.00,,---,0.06,VWS V14.01,2013-08-14 12:17:00,
2013-08-14 08:22:00,50.9,45.9,30.13,NW,315,0.0,0.0,83,0.00,,---,0.06,VWS V14.01,2013-08-14 12:22:00,
2013-08-14 08:27:00,51.2,46.2,30.13,NW,315,0.0,0.0,83,0.00,,---,0.06,VWS V14.01,2013-08-14 12:27:00,
2013-08-14 08:32:00,51.6,46.6,30.13,WNW,292,0.0,0.0,83,0.00,,---,0.06,VWS V14.01,2013-08-14 12:32:00,
2013-08-14 08:37:00,52.1,47.1,30.13,WNW,292,0.0,0.0,83,0.00,,---,0.06,VWS V14.01,2013-08-14 12:37:00,
2013-08-14 08:42:00,52.5,47.2,30.13,NW,315,0.0,0.0,82,0.00,,---,0.06,VWS V14.01,2013-08-14 12:42:00,
2013-08-14 08:47:00,52.8,47.5,30.13,NNW,338,0.0,0.0,82,0.00,,---,0.06,VWS V14.01,2013-08-14 12:47:00,
2013-08-14 08:52:00,53.4,47.7,30.13,ENE,68,0.0,0.0,81,0.00,,---,0.06,VWS V14.01,2013-08-14 12:52:00,
2013-08-14 08:57:00,53.7,47.7,30.14,ENE,68,0.0,0.0,80,0.00,,---,0.06,VWS V14.01,2013-08-14 12:57:00,
2013-08-14 09:02:00,54.1,48.1,30.14,NNW,338,5.8,5.8,80,0.00,,---,0.06,VWS V14.01,2013-08-14 13:02:00,
2013-08-14 09:07:00,54.6,48.2,30.14,NE,45,0.0,8.2,79,0.00,,---,0.06,VWS V14.01,2013-08-14 13:07:00,
2013-08-14 09:12:00,55.0,48.6,30.14,WNW,292,5.3,5.3,79,0.00,,---,0.06,VWS V14.01,2013-08-14 13:12:00,
2013-08-14 09:17:00,55.2,48.5,30.14,WNW,292,0.0,0.0,78,0.00,,---,0.06,VWS V14.01,2013-08-14 13:17:00,
2013-08-14 09:22:00,55.9,49.2,30.14,NW,315,4.9,4.9,78,0.00,,---,0.06,VWS V14.01,2013-08-14 13:22:00,
2013-08-14 09:27:00,56.1,49.0,30.14,ENE,68,0.4,0.4,77,0.00,,---,0.06,VWS V14.01,2013-08-14 13:27:00,
2013-08-14 09:32:00,56.4,49.3,30.14,NE,45,0.0,0.0,77,0.00,,---,0.06,VWS V14.01,2013-08-14 13:32:00,
2013-08-14 09:37:00,56.8,49.3,30.14,NNW,338,0.0,0.0,76,0.00,,---,0.06,VWS V14.01,2013-08-14 13:37:00,
2013-08-14 09:42:00,57.0,49.5,30.14,NNE,22,7.3,7.3,76,0.00,,---,0.06,VWS V14.01,2013-08-14 13:42:00,
2013-08-14 09:47:00,57.3,49.8,30.14,NNE,22,0.0,0.0,76,0.00,,---,0.06,VWS V14.01,2013-08-14 13:47:00,
2013-08-14 09:52:00,57.9,50.0,30.15,NNE,22,1.5,1.5,75,0.00,,---,0.06,VWS V14.01,2013-08-14 13:52:00,
2013-08-14 09:57:00,58.2,50.0,30.14,North,0,0.0,0.0,74,0.00,,---,0.06,VWS V14.01,2013-08-14 13:57:00,
2013-08-14 10:02:00,58.4,50.2,30.14,NW,315,2.6,2.6,74,0.00,,---,0.06,VWS V14.01,2013-08-14 14:02:00,
2013-08-14 10:07:00,58.8,50.2,30.15,NE,45,0.0,7.3,73,0.00,,---,0.06,VWS V14.01,2013-08-14 14:07:00,
2013-08-14 10:12:00,58.8,50.2,30.14,ESE,112,0.0,6.9,73,0.00,,---,0.06,VWS V14.01,2013-08-14 14:12:00,
2013-08-14 10:17:00,59.3,50.3,30.14,NNW,338,0.0,0.0,72,0.00,,---,0.06,VWS V14.01,2013-08-14 14:17:00,
2013-08-14 10:22:00,59.7,50.7,30.15,ENE,68,0.0,0.8,72,0.00,,---,0.06,VWS V14.01,2013-08-14 14:22:00,
2013-08-14 10:27:00,60.0,50.6,30.15,NNE,22,0.0,0.0,71,0.00,,---,0.06,VWS V14.01,2013-08-14 14:27:00,
2013-08-14 10:32:00,60.4,50.6,30.15,NW,315,0.6,0.6,70,0.00,,---,0.06,VWS V14.01,2013-08-14 14:32:00,
2013-08-14 10:37:00,60.6,50.8,30.14,NW,315,4.6,4.6,70,0.00,,---,0.06,VWS V14.01,2013-08-14 14:37:00,
2013-08-14 10:42:00,60.9,50.7,30.14,NE,45,0.0,0.0,69,0.00,,---,0.06,VWS V14.01,2013-08-14 14:42:00,
2013-08-14 10:47:00,61.3,51.1,30.14,NW,315,0.0,0.0,69,0.00,,---,0.06,VWS V14.01,2013-08-14 14:47:00,
2013-08-14 10:52:00,61.5,50.8,30.15,ENE,68,3.5,3.5,68,0.00,,---,0.06,VWS V14.01,2013-08-14 14:52:00,
2013-08-14 10:57:00,61.7,51.0,30.15,NNE,22,0.0,0.0,68,0.00,,---,0.06,VWS V14.01,2013-08-14 14:57:00,
2013-08-14 11:02:00,62.2,51.1,30.15,NNW,338,8.2,8.2,67,0.00,,---,0.06,VWS V14.01,2013-08-14 15:02:00,
2013-08-14 11:07:00,62.4,51.3,30.15,NW,315,8.2,8.2,67,0.00,,---,0.06,VWS V14.01,2013-08-14 15:07:00,
2013-08-14 11:12:00,62.7,50.8,30.15,NNW,338,3.8,3.8,65,0.00,,---,0.06,VWS V14.01,2013-08-14 15:12:00,
2013-08-14 11:17:00,63.1,51.2,30.15,SE,135,0.0,0.0,65,0.00,,---,0.06,VWS V14.01,2013-08-14 15:17:00,
2013-08-14 11:22:00,63.1,51.2,30.15,NE,45,0.0,7.8,65,0.00,,---,0.06,VWS V14.01,2013-08-14 15:22:00,
2013-08-14 11:27:00,63.3,50.9,30.15,WNW,292,2.4,2.4,64,0.00,,---,0.06,VWS V14.01,2013-08-14 15:27:00,
2013-08-14 11:32:00,63.6,51.2,30.15,East,90,3.5,3.5,64,0.00,,---,0.06,VWS V14.01,2013-08-14 15:32:00,
2013-08-14 11:37:00,64.2,51.4,30.15,ENE,68,4.2,6.2,63,0.00,,---,0.06,VWS V14.01,2013-08-14 15:37:00,
2013-08-14 11:42:00,64.2,50.9,30.15,NW,315,0.0,0.0,62,0.00,,---,0.06,VWS V14.01,2013-08-14 15:42:00,
2013-08-14 11:47:00,64.2,50.9,30.15,NNE,22,4.2,4.2,62,0.00,,---,0.06,VWS V14.01,2013-08-14 15:47:00,
2013-08-14 11:54:00,64.0,50.3,30.15,NE,45,0.0,0.0,61,0.00,,---,0.06,VWS V14.01,2013-08-14 15:54:00,
2013-08-14 11:59:00,64.0,50.3,30.15,NW,315,0.0,0.0,61,0.00,,---,0.06,VWS V14.01,2013-08-14 15:59:00,
2013-08-14 12:04:00,64.2,50.5,30.15,ENE,68,4.6,4.6,61,0.00,,---,0.06,VWS V14.01,2013-08-14 16:04:00,
2013-08-14 12:09:00,64.7,51.0,30.15,ESE,112,1.3,1.3,61,0.00,,---,0.06,VWS V14.01,2013-08-14 16:09:00,
2013-08-14 12:14:00,64.9,50.2,30.15,NW,315,6.9,6.9,59,0.00,,---,0.06,VWS V14.01,2013-08-14 16:14:00,
2013-08-14 12:20:00,64.9,50.7,30.15,NE,45,0.0,0.0,60,0.00,,---,0.06,VWS V14.01,2013-08-14 16:20:00,
2013-08-14 12:26:00,64.9,50.2,30.15,ENE,68,0.0,0.0,59,0.00,,---,0.06,VWS V14.01,2013-08-14 16:26:00,
2013-08-14 12:31:00,65.3,51.1,30.15,WNW,292,0.0,0.0,60,0.00,,---,0.06,VWS V14.01,2013-08-14 16:31:00,
2013-08-14 12:36:00,65.4,50.2,30.14,NW,315,5.1,5.1,58,0.00,,---,0.06,VWS V14.01,2013-08-14 16:36:00,
2013-08-14 12:41:00,66.0,50.8,30.14,ENE,68,0.0,0.0,58,0.00,,---,0.06,VWS V14.01,2013-08-14 16:41:00,
2013-08-14 12:46:00,66.2,50.5,30.14,NNW,338,2.2,2.2,57,0.00,,---,0.06,VWS V14.01,2013-08-14 16:46:00,
2013-08-14 12:51:00,66.2,50.1,30.14,NW,315,0.0,0.0,56,0.00,,---,0.06,VWS V14.01,2013-08-14 16:51:00,
2013-08-14 12:56:00,66.2,50.5,30.14,NE,45,0.0,3.3,57,0.00,,---,0.06,VWS V14.01,2013-08-14 16:56:00,
2013-08-14 13:02:00,66.3,50.6,30.14,NNW,338,0.0,0.0,57,0.00,,---,0.06,VWS V14.01,2013-08-14 17:02:00,
2013-08-14 13:08:00,66.5,50.3,30.14,NNE,22,7.3,7.3,56,0.00,,---,0.06,VWS V14.01,2013-08-14 17:08:00,
2013-08-14 13:13:00,66.3,50.2,30.14,WNW,292,0.0,0.0,56,0.00,,---,0.06,VWS V14.01,2013-08-14 17:13:00,
2013-08-14 13:18:00,66.3,49.7,30.13,SW,225,2.4,2.4,55,0.00,,---,0.06,VWS V14.01,2013-08-14 17:18:00,
2013-08-14 13:24:00,66.5,49.8,30.14,West,270,1.3,1.3,55,0.00,,---,0.06,VWS V14.01,2013-08-14 17:24:00,
2013-08-14 13:29:00,66.7,49.5,30.14,WNW,292,3.1,3.1,54,0.00,,---,0.06,VWS V14.01,2013-08-14 17:29:00,
2013-08-14 13:34:00,66.5,49.4,30.14,West,270,0.0,0.0,54,0.00,,---,0.06,VWS V14.01,2013-08-14 17:34:00,
2013-08-14 13:39:00,66.5,49.4,30.14,NE,45,0.8,2.0,54,0.00,,---,0.06,VWS V14.01,2013-08-14 17:39:00,
2013-08-14 13:44:00,66.7,49.5,30.14,ENE,68,0.0,0.0,54,0.00,,---,0.06,VWS V14.01,2013-08-14 17:44:00,
2013-08-14 13:50:00,67.2,49.5,30.14,NE,45,5.3,5.3,53,0.00,,---,0.06,VWS V14.01,2013-08-14 17:50:00,
2013-08-14 13:55:00,67.6,49.9,30.13,NE,45,0.0,0.0,53,0.00,,---,0.06,VWS V14.01,2013-08-14 17:55:00,
2013-08-14 14:00:00,67.8,50.1,30.14,NE,45,0.0,0.0,53,0.00,,---,0.06,VWS V14.01,2013-08-14 18:00:00,
2013-08-14 14:05:00,67.8,50.1,30.13,North,0,0.0,0.0,53,0.00,,---,0.06,VWS V14.01,2013-08-14 18:05:00,
2013-08-14 14:10:00,67.8,50.1,30.13,NE,45,0.0,0.0,53,0.00,,---,0.06,VWS V14.01,2013-08-14 18:10:00,
2013-08-14 14:17:00,68.0,50.2,30.13,North,0,0.0,3.8,53,0.00,,---,0.06,VWS V14.01,2013-08-14 18:17:00,
2013-08-14 14:23:00,68.1,49.8,30.13,North,0,4.6,4.6,52,0.00,,---,0.06,VWS V14.01,2013-08-14 18:23:00,
2013-08-14 14:31:00,68.1,49.3,30.13,WSW,248,2.9,5.8,51,0.00,,---,0.06,VWS V14.01,2013-08-14 18:31:00,
2013-08-14 14:36:00,68.1,49.8,30.13,NNW,338,0.0,0.0,52,0.00,,---,0.06,VWS V14.01,2013-08-14 18:36:00,
2013-08-14 14:42:00,68.5,49.7,30.13,West,270,8.7,8.7,51,0.00,,---,0.06,VWS V14.01,2013-08-14 18:42:00,
2013-08-14 14:47:00,68.7,49.9,30.13,WSW,248,8.2,8.2,51,0.00,,---,0.06,VWS V14.01,2013-08-14 18:47:00,
2013-08-14 14:52:00,68.7,49.9,30.12,NNE,22,8.0,8.0,51,0.00,,---,0.06,VWS V14.01,2013-08-14 18:52:00,
2013-08-14 14:58:00,68.9,49.5,30.12,NNE,22,2.0,2.0,50,0.00,,---,0.06,VWS V14.01,2013-08-14 18:58:00,
2013-08-14 15:03:00,69.0,49.6,30.12,NE,45,3.1,3.1,50,0.00,,---,0.06,VWS V14.01,2013-08-14 19:03:00,
2013-08-14 15:08:00,69.2,49.2,30.12,SW,225,2.9,2.9,49,0.00,,---,0.06,VWS V14.01,2013-08-14 19:08:00,
2013-08-14 15:13:00,69.2,49.2,30.12,SSW,202,0.0,0.0,49,0.00,,---,0.06,VWS V14.01,2013-08-14 19:13:00,
2013-08-14 15:18:00,69.4,49.4,30.12,SW,225,2.0,4.4,49,0.00,,---,0.06,VWS V14.01,2013-08-14 19:18:00,
2013-08-14 15:23:00,69.4,49.4,30.12,SSW,202,0.0,7.8,49,0.00,,---,0.06,VWS V14.01,2013-08-14 19:23:00,
2013-08-14 15:28:00,69.2,49.2,30.11,WNW,292,0.0,0.0,49,0.00,,---,0.06,VWS V14.01,2013-08-14 19:28:00,
2013-08-14 15:34:00,69.0,49.1,30.11,NNW,338,0.0,0.0,49,0.00,,---,0.06,VWS V14.01,2013-08-14 19:34:00,
2013-08-14 15:40:00,69.0,49.6,30.11,SSW,202,7.8,7.8,50,0.00,,---,0.06,VWS V14.01,2013-08-14 19:40:00,
2013-08-14 15:46:00,69.2,49.2,30.11,West,270,1.3,4.4,49,0.00,,---,0.06,VWS V14.01,2013-08-14 19:46:00,
2013-08-14 15:53:00,69.6,49.1,30.11,NNW,338,0.4,0.4,48,0.00,,---,0.06,VWS V14.01,2013-08-14 19:53:00,
2013-08-14 15:58:00,69.9,49.9,30.11,NE,45,7.6,7.6,49,0.00,,---,0.06,VWS V14.01,2013-08-14 19:58:00,
2013-08-14 16:03:00,70.3,50.3,30.10,SW,225,0.0,0.0,49,0.00,,---,0.06,VWS V14.01,2013-08-14 20:03:00,
2013-08-14 16:09:00,70.3,49.7,30.11,SW,225,7.1,7.1,48,0.00,,---,0.06,VWS V14.01,2013-08-14 20:09:00,
2013-08-14 16:14:00,70.1,49.5,30.11,SW,225,2.4,2.4,48,0.00,,---,0.06,VWS V14.01,2013-08-14 20:14:00,
2013-08-14 16:19:00,69.9,49.9,30.10,WSW,248,8.7,8.7,49,0.00,,---,0.06,VWS V14.01,2013-08-14 20:19:00,
2013-08-14 16:25:00,70.1,49.5,30.11,WSW,248,3.8,7.1,48,0.00,,---,0.06,VWS V14.01,2013-08-14 20:25:00,
2013-08-14 16:30:00,70.3,49.1,30.11,NNW,338,0.0,0.0,47,0.00,,---,0.06,VWS V14.01,2013-08-14 20:30:00,
2013-08-14 16:38:00,70.3,49.1,30.11,SSW,202,3.1,3.1,47,0.00,,---,0.06,VWS V14.01,2013-08-14 20:38:00,
2013-08-14 16:43:00,70.5,48.8,30.11,SW,225,7.6,7.6,46,0.00,,---,0.06,VWS V14.01,2013-08-14 20:43:00,
2013-08-14 16:48:00,70.5,48.8,30.11,NE,45,1.7,1.7,46,0.00,,---,0.06,VWS V14.01,2013-08-14 20:48:00,
2013-08-14 16:53:00,70.7,48.9,30.11,NNW,338,7.8,7.8,46,0.00,,---,0.06,VWS V14.01,2013-08-14 20:53:00,
2013-08-14 16:58:00,70.7,48.9,30.11,NW,315,0.0,0.0,46,0.00,,---,0.06,VWS V14.01,2013-08-14 20:58:00,
2013-08-14 17:03:00,70.3,48.6,30.11,WSW,248,0.0,2.0,46,0.00,,---,0.06,VWS V14.01,2013-08-14 21:03:00,
2013-08-14 17:08:00,70.1,49.0,30.10,WSW,248,6.2,6.2,47,0.00,,---,0.06,VWS V14.01,2013-08-14 21:08:00,
2013-08-14 17:13:00,69.9,48.8,30.10,WSW,248,0.0,0.0,47,0.00,,---,0.06,VWS V14.01,2013-08-14 21:13:00,
2013-08-14 17:18:00,69.8,48.7,30.11,WNW,292,0.0,2.4,47,0.00,,---,0.06,VWS V14.01,2013-08-14 21:18:00,
2013-08-14 17:23:00,69.9,48.8,30.11,NW,315,0.0,0.0,47,0.00,,---,0.06,VWS V14.01,2013-08-14 21:23:00,
2013-08-14 17:28:00,69.9,48.8,30.10,NNW,338,0.0,0.0,47,0.00,,---,0.06,VWS V14.01,2013-08-14 21:28:00,
2013-08-14 17:33:00,70.1,49.5,30.10,West,270,0.0,0.0,48,0.00,,---,0.06,VWS V14.01,2013-08-14 21:33:00,
2013-08-14 17:38:00,70.1,49.5,30.10,East,90,0.0,1.3,48,0.00,,---,0.06,VWS V14.01,2013-08-14 21:38:00,
2013-08-14 17:43:00,70.3,49.7,30.10,NNW,338,0.0,0.0,48,0.00,,---,0.06,VWS V14.01,2013-08-14 21:43:00,
2013-08-14 17:48:00,70.8,50.2,30.10,WSW,248,6.7,6.7,48,0.00,,---,0.06,VWS V14.01,2013-08-14 21:48:00,
2013-08-14 17:53:00,71.4,50.1,30.10,WSW,248,0.0,3.1,47,0.00,,---,0.06,VWS V14.01,2013-08-14 21:53:00,
2013-08-14 17:58:00,71.7,50.4,30.10,WSW,248,3.1,3.1,47,0.00,,---,0.06,VWS V14.01,2013-08-14 21:58:00,
2013-08-14 18:03:00,71.4,50.1,30.10,WSW,248,2.4,2.4,47,0.00,,---,0.06,VWS V14.01,2013-08-14 22:03:00,
2013-08-14 18:08:00,71.7,50.4,30.10,West,270,0.0,0.0,47,0.00,,---,0.06,VWS V14.01,2013-08-14 22:08:00,
2013-08-14 18:13:00,72.3,51.0,30.10,WSW,248,0.0,0.0,47,0.00,,---,0.06,VWS V14.01,2013-08-14 22:13:00,
2013-08-14 18:18:00,73.2,50.6,30.10,NW,315,0.0,2.0,45,0.00,,---,0.06,VWS V14.01,2013-08-14 22:18:00,
2013-08-14 18:23:00,73.5,50.9,30.10,WSW,248,6.0,6.0,45,0.00,,---,0.06,VWS V14.01,2013-08-14 22:23:00,
2013-08-14 18:29:00,73.5,50.3,30.10,West,270,0.0,4.9,44,0.00,,---,0.06,VWS V14.01,2013-08-14 22:29:00,
2013-08-14 18:35:00,73.7,51.1,30.09,West,270,2.0,2.6,45,0.00,,---,0.06,VWS V14.01,2013-08-14 22:35:00,
2013-08-14 18:41:00,74.1,50.8,30.09,SW,225,4.0,4.0,44,0.00,,---,0.06,VWS V14.01,2013-08-14 22:41:00,
2013-08-14 18:47:00,74.3,50.4,30.09,SW,225,1.3,1.3,43,0.00,,---,0.06,VWS V14.01,2013-08-14 22:47:00,
2013-08-14 18:52:00,74.3,51.0,30.09,South,180,0.6,4.2,44,0.00,,---,0.06,VWS V14.01,2013-08-14 22:52:00,
2013-08-14 18:57:00,74.4,50.5,30.10,WSW,248,2.6,3.5,43,0.00,,---,0.06,VWS V14.01,2013-08-14 22:57:00,
2013-08-14 19:06:00,74.1,50.2,30.09,WSW,248,3.5,3.5,43,0.00,,---,0.06,VWS V14.01,2013-08-14 23:06:00,
2013-08-14 19:11:00,73.9,50.0,30.09,WSW,248,3.3,3.3,43,0.00,,---,0.06,VWS V14.01,2013-08-14 23:11:00,
2013-08-14 19:16:00,73.9,50.0,30.08,WSW,248,1.1,4.0,43,0.00,,---,0.06,VWS V14.01,2013-08-14 23:16:00,
2013-08-14 19:22:00,74.1,50.2,30.09,WSW,248,1.5,1.5,43,0.00,,---,0.06,VWS V14.01,2013-08-14 23:22:00,
2013-08-14 19:27:00,74.1,50.8,30.09,WSW,248,0.0,0.0,44,0.00,,---,0.06,VWS V14.01,2013-08-14 23:27:00,
2013-08-14 19:32:00,74.3,51.0,30.09,WSW,248,4.9,4.9,44,0.00,,---,0.06,VWS V14.01,2013-08-14 23:32:00,
2013-08-14 19:37:00,74.3,50.4,30.08,WNW,292,0.0,0.0,43,0.00,,---,0.06,VWS V14.01,2013-08-14 23:37:00,
2013-08-14 19:42:00,73.9,50.6,30.08,NW,315,0.0,0.0,44,0.00,,---,0.06,VWS V14.01,2013-08-14 23:42:00,
2013-08-14 19:47:00,73.5,50.3,30.09,SW,225,3.1,3.1,44,0.00,,---,0.06,VWS V14.01,2013-08-14 23:47:00,
2013-08-14 19:52:00,72.3,49.8,30.09,SSW,202,3.3,3.3,45,0.00,,---,0.06,VWS V14.01,2013-08-14 23:52:00,
2013-08-14 19:57:00,71.7,49.2,30.09,WSW,248,0.0,0.0,45,0.00,,---,0.06,VWS V14.01,2013-08-14 23:57:00,
2013-08-14 20:05:00,70.7,48.9,30.10,West,270,3.1,4.4,46,0.00,,---,0.06,VWS V14.01,2013-08-15 00:05:00,
2013-08-14 20:10:00,70.1,49.0,30.09,West,270,0.0,0.0,47,0.00,,---,0.06,VWS V14.01,2013-08-15 00:10:00,
2013-08-14 20:15:00,69.8,48.7,30.09,SW,225,0.0,0.0,47,0.00,,---,0.06,VWS V14.01,2013-08-15 00:15:00,
2013-08-14 20:20:00,69.4,48.9,30.09,SW,225,0.0,1.1,48,0.00,,---,0.06,VWS V14.01,2013-08-15 00:20:00,
2013-08-14 20:25:00,69.0,49.1,30.09,SW,225,0.0,0.0,49,0.00,,---,0.06,VWS V14.01,2013-08-15 00:25:00,
2013-08-14 20:30:00,68.9,49.0,30.09,SW,225,0.0,0.0,49,0.00,,---,0.06,VWS V14.01,2013-08-15 00:30:00,
2013-08-14 20:36:00,68.5,49.2,30.09,SW,225,0.0,0.0,50,0.00,,---,0.06,VWS V14.01,2013-08-15 00:36:00,
2013-08-14 20:41:00,68.3,49.5,30.09,SW,225,0.0,0.0,51,0.00,,---,0.06,VWS V14.01,2013-08-15 00:41:00,
2013-08-14 20:46:00,67.8,49.0,30.09,SW,225,0.0,0.0,51,0.00,,---,0.06,VWS V14.01,2013-08-15 00:46:00,
2013-08-14 20:51:00,67.8,49.5,30.09,SW,225,0.0,0.0,52,0.00,,---,0.06,VWS V14.01,2013-08-15 00:51:00,
2013-08-14 20:56:00,67.4,49.2,30.09,SW,225,0.0,0.0,52,0.00,,---,0.06,VWS V14.01,2013-08-15 00:56:00,
2013-08-14 21:01:00,67.2,49.5,30.10,SW,225,0.0,0.0,53,0.00,,---,0.06,VWS V14.01,2013-08-15 01:01:00,
2013-08-14 21:06:00,66.9,49.2,30.10,SW,225,0.0,0.0,53,0.00,,---,0.06,VWS V14.01,2013-08-15 01:06:00,
2013-08-14 21:11:00,66.7,49.5,30.10,SSW,202,0.0,0.0,54,0.00,,---,0.06,VWS V14.01,2013-08-15 01:11:00,
2013-08-14 21:16:00,66.3,49.2,30.10,SSW,202,0.0,0.0,54,0.00,,---,0.06,VWS V14.01,2013-08-15 01:16:00,
2013-08-14 21:21:00,66.0,48.9,30.10,SSW,202,0.0,0.0,54,0.00,,---,0.06,VWS V14.01,2013-08-15 01:21:00,
2013-08-14 21:26:00,65.8,49.2,30.10,SSW,202,0.0,0.0,55,0.00,,---,0.06,VWS V14.01,2013-08-15 01:26:00,
2013-08-14 21:31:00,65.4,49.3,30.10,SSW,202,0.0,0.0,56,0.00,,---,0.06,VWS V14.01,2013-08-15 01:31:00,
2013-08-14 21:36:00,65.3,49.2,30.10,SSW,202,0.0,0.0,56,0.00,,---,0.06,VWS V14.01,2013-08-15 01:36:00,
2013-08-14 21:41:00,64.9,49.3,30.10,SSW,202,0.0,0.0,57,0.00,,---,0.06,VWS V14.01,2013-08-15 01:41:00,
2013-08-14 21:46:00,64.7,49.1,30.10,SSW,202,0.0,0.0,57,0.00,,---,0.06,VWS V14.01,2013-08-15 01:46:00,
2013-08-14 21:51:00,64.5,49.0,30.10,SSW,202,0.0,0.0,57,0.00,,---,0.06,VWS V14.01,2013-08-15 01:51:00,
2013-08-14 21:56:00,64.2,48.7,30.10,SSW,202,0.0,0.0,57,0.00,,---,0.06,VWS V14.01,2013-08-15 01:56:00,
2013-08-14 22:01:00,64.0,48.9,30.10,SSW,202,0.0,0.0,58,0.00,,---,0.06,VWS V14.01,2013-08-15 02:01:00,
2013-08-14 22:06:00,63.6,48.6,30.10,SSW,202,0.0,0.0,58,0.00,,---,0.06,VWS V14.01,2013-08-15 02:06:00,
2013-08-14 22:11:00,63.5,48.9,30.11,SSW,202,0.0,0.0,59,0.00,,---,0.06,VWS V14.01,2013-08-15 02:11:00,
2013-08-14 22:16:00,63.3,49.2,30.11,SSW,202,0.0,0.0,60,0.00,,---,0.06,VWS V14.01,2013-08-15 02:16:00,
2013-08-14 22:21:00,63.1,49.5,30.11,SSW,202,0.0,0.0,61,0.00,,---,0.06,VWS V14.01,2013-08-15 02:21:00,
2013-08-14 22:26:00,62.9,49.7,30.11,SSW,202,0.0,0.0,62,0.00,,---,0.06,VWS V14.01,2013-08-15 02:26:00,
2013-08-14 22:31:00,62.7,49.5,30.11,SSW,202,0.0,0.0,62,0.00,,---,0.06,VWS V14.01,2013-08-15 02:31:00,
2013-08-14 22:36:00,62.6,49.4,30.11,West,270,0.0,0.0,62,0.00,,---,0.06,VWS V14.01,2013-08-15 02:36:00,
2013-08-14 22:41:00,62.4,49.7,30.11,West,270,0.0,0.0,63,0.00,,---,0.06,VWS V14.01,2013-08-15 02:41:00,
2013-08-14 22:46:00,62.2,49.5,30.11,West,270,0.0,0.0,63,0.00,,---,0.06,VWS V14.01,2013-08-15 02:46:00,
2013-08-14 22:51:00,62.0,49.3,30.11,WSW,248,0.0,0.0,63,0.00,,---,0.06,VWS V14.01,2013-08-15 02:51:00,
2013-08-14 22:56:00,61.8,49.1,30.11,SW,225,0.0,0.0,63,0.00,,---,0.06,VWS V14.01,2013-08-15 02:56:00,
2013-08-14 23:01:00,61.7,49.0,30.11,West,270,0.0,0.0,63,0.00,,---,0.06,VWS V14.01,2013-08-15 03:01:00,
2013-08-14 23:06:00,61.5,48.8,30.11,WSW,248,0.0,0.0,63,0.00,,---,0.06,VWS V14.01,2013-08-15 03:06:00,
2013-08-14 23:11:00,61.5,48.8,30.12,West,270,2.2,2.6,63,0.00,,---,0.06,VWS V14.01,2013-08-15 03:11:00,
2013-08-14 23:16:00,61.5,48.8,30.12,WSW,248,2.9,2.9,63,0.00,,---,0.06,VWS V14.01,2013-08-15 03:16:00,
2013-08-14 23:21:00,61.3,48.6,30.12,West,270,0.0,0.0,63,0.00,,---,0.06,VWS V14.01,2013-08-15 03:21:00,
2013-08-14 23:26:00,61.3,48.6,30.11,West,270,0.0,0.0,63,0.00,,---,0.06,VWS V14.01,2013-08-15 03:26:00,
2013-08-14 23:31:00,61.3,48.6,30.11,NNE,22,0.0,0.0,63,0.00,,---,0.06,VWS V14.01,2013-08-15 03:31:00,
2013-08-14 23:36:00,61.1,48.4,30.11,WSW,248,0.0,0.0,63,0.00,,---,0.06,VWS V14.01,2013-08-15 03:36:00,
2013-08-14 23:41:00,60.9,48.2,30.11,WSW,248,0.0,0.0,63,0.00,,---,0.06,VWS V14.01,2013-08-15 03:41:00,
2013-08-14 23:46:00,60.6,48.0,30.12,NW,315,0.0,0.0,63,0.00,,---,0.06,VWS V14.01,2013-08-15 03:46:00,
2013-08-14 23:51:00,60.6,48.0,30.11,WSW,248,0.0,0.0,63,0.00,,---,0.06,VWS V14.01,2013-08-15 03:51:00,
2013-08-14 23:56:00,60.4,48.2,30.12,WSW,248,0.0,0.0,64,0.00,,---,0.06,VWS V14.01,2013-08-15 03:56:00,